Tracking 19250 objects as of 24-Sep-2018
HD Live streaming from Space Station
objects crossing your sky now

GALAXY 3R

Track GALAXY 3R now!
GALAXY 3R is classified as:


NORAD ID: 23741
Int'l Code: 1995-069A
Perigee: 35,771.4 km
Apogee: 35,787.2 km
Inclination: 10.6 °
Period: 1,435.4 minutes
Semi major axis: 42150 km
RCS: 12.3125 m2 (large)
Launch date: December 15, 1995
Source: United States (US)
Launch site: AIR FORCE EASTERN TEST RANGE (AFETR)

24 C-band, 16 Ku-band; North America, Caribbean; 140 television channels.
aabbcc
Your satellite tracking list
Your tracking list is empty




NASA's NSSDC Master Catalog

Two Line Element Set (TLE):
1 23741U 95069A   18266.37884466 -.00000192 +00000-0 +00000-0 0  9998
2 23741 010.5785 035.9244 0001879 229.4329 140.9998 01.00323412083498
Source of the keplerian elements: AFSPC